Location: Pelzer
(34.6421°N, 82.4557°W)
Time: 23:01:37
(UTC+00:00)

Tiangong - Visible Passes

Search period start: 08 August 2022 00:00
Search period end: 18 August 2022 00:00
Orbit: 379 x 387 km, 41.5° (Epoch: 08 August)

Date Brightness Start Highest point End Pass type
(mag) Time Alt. Az. Time Alt. Az. Time Alt. Az.
08 Aug 0.5 08:16:36 20° NNE 08:16:36 20° NNE 08:18:19 10° ENE visible
08 Aug -1.4 09:49:46 10° WNW 09:52:54 55° NNE 09:56:00 10° E visible
09 Aug -0.7 08:51:56 31° NNW 08:52:37 35° NNE 08:55:34 10° E visible
10 Aug -2.3 09:27:33 24° WNW 09:29:18 84° SSW 09:32:27 10° ESE visible
11 Aug 0.5 08:31:15 17° E 08:31:15 17° E 08:32:09 10° E visible
11 Aug -0.8 10:03:31 12° W 10:05:40 22° SW 10:08:13 10° SSE visible
12 Aug -0.1 09:07:33 18° SE 09:07:33 18° SE 09:08:34 10° SE visible
13 Aug 0.4 01:35:06 10° S 01:35:14 11° S 01:35:14 11° S visible
14 Aug 0.0 02:10:28 10° SW 02:11:31 19° SW 02:11:31 19° SW visible
15 Aug -1.4 01:10:30 10° SSW 01:13:21 33° SSE 01:15:10 18° E visible
15 Aug 1.1 02:47:08 10° W 02:47:23 12° W 02:47:23 12° W visible
16 Aug -1.9 01:46:37 10° WSW 01:49:44 67° NNW 01:50:40 39° NE visible
17 Aug -2.2 00:46:18 10° SW 00:49:24 66° SSE 00:52:30 10° ENE visible
17 Aug -0.1 02:23:33 10° WNW 02:25:51 27° NNW 02:25:51 27° NNW visible
